Location: Poughquag
(41.6090°N, 73.6820°W)
Time: 19:07:10
(UTC-04:00)

MOZHAYETS 4 - Pass Details

Date: 19 August 2024
Orbit: 650 x 668 km, 98.3° (Epoch: 15 September)

Event Time Altitude Azimuth Distance (km) Brightness Sun altitude
Exits shadow 04:47:43 - 179° (S) 2,743 10.6 -14.4°
Reaches altitude 10° 04:49:21 10° 183° (S) 2,089 9.9 -14.2°
Maximum altitude 04:53:48 51° 260° (W) 840 7.9 -13.5°
Drops below altitude 10° 04:58:17 10° 337° (NNW) 2,104 10.4 -12.7°
Sets 05:00:35 0° 342° (NNW) 3,021 11.2 -12.4°
